Theta_e
323 321 322 321 319 320 321 320 319 320 320 319 319 319 319 319 319 318 319 319 319 318 317 316 316 316 316 316 316 316 315 316 317 316 316 316 315 315 315 315 315 315
323 322 322 321 319 318 320 320 319 320 320 318 318 319 319 319 320 319 319 319 319 319 318 317 316 316 316 316 315 316 316 316 316 315 315 316 316 316 315 315 315 314
324 324 322 322 320 318 320 321 320 320 320 319 318 318 319 320 320 318 319 320 319 319 318 317 316 316 316 316 315 316 316 316 316 315 316 316 316 316 315 315 315 314
325 325 324 323 322 320 320 322 321 320 320 320 319 319 319 320 321 319 320 320 319 319 319 318 316 315 315 315 315 315 316 316 316 315 315 315 315 315 315 315 314 313
326 325 325 324 322 321 322 323 322 321 320 320 320 319 319 321 321 319 320 320 319 319 319 318 317 316 316 315 315 315 315 315 315 314 315 315 315 315 314 314 314 313
326 326 325 324 323 322 322 323 323 322 321 320 321 320 320 321 321 319 320 320 319 319 320 319 317 316 316 315 315 315 314 315 314 314 315 315 314 314 313 313 314 312
324 325 324 324 323 323 323 323 323 323 322 321 322 321 320 321 321 319 320 320 320 320 320 319 318 316 316 315 315 316 315 315 315 314 314 314 314 314 312 312 312 312
323 323 323 322 323 322 323 323 322 323 324 322 322 322 321 321 321 320 320 320 320 320 320 320 318 317 316 315 315 315 315 316 315 314 313 314 314 313 312 312 312 310
324 324 322 322 322 322 322 322 321 321 323 323 323 323 323 322 321 320 320 320 320 320 320 320 319 318 317 316 315 315 315 315 315 314 313 314 313 313 312 312 311 311
324 324 323 322 323 323 323 322 321 320 321 323 323 323 323 323 322 320 320 321 320 320 321 320 319 319 318 317 315 315 315 315 315 313 313 313 313 312 311 311 311 311
325 325 324 324 324 324 324 323 322 322 322 322 322 323 324 323 323 321 320 321 321 321 320 320 320 319 318 317 316 315 315 315 314 314 313 313 313 312 311 311 310 310
324 324 324 325 325 325 325 323 323 323 323 322 322 323 323 323 323 322 321 321 321 321 321 320 320 319 318 317 316 315 315 315 314 314 313 313 312 311 310 310 310 310
322 322 323 325 325 324 324 324 323 324 324 323 323 323 323 323 323 323 322 322 322 321 321 321 320 319 318 317 317 316 315 315 315 314 313 312 311 311 310 310 309 308
316 318 320 321 322 322 323 323 324 323 323 322 323 324 324 323 323 323 322 322 322 321 321 321 320 319 318 317 317 316 315 315 314 314 313 312 311 310 309 309 308 307
311 312 314 315 317 319 321 322 323 322 322 321 321 323 323 323 323 323 322 322 322 321 321 321 320 319 318 318 317 316 316 315 314 313 312 312 311 310 309 308 307 305
309 310 310 311 313 314 316 318 320 321 322 322 321 322 322 322 322 322 322 323 322 321 321 321 319 318 318 317 317 316 315 314 314 313 312 311 311 309 308 307 306 305
309 309 309 310 310 311 312 313 315 317 320 321 321 320 321 321 322 322 322 322 322 321 320 320 318 318 318 317 316 315 314 314 313 312 311 310 309 307 306 306 305 305
309 309 309 309 309 310 311 311 312 313 316 319 319 320 320 320 320 321 321 321 321 320 320 319 318 317 317 316 315 313 313 313 312 310 309 308 306 306 305 305 304 304
308 309 309 309 310 310 311 312 312 312 313 315 317 318 319 319 319 320 320 320 320 320 320 318 318 317 317 315 313 312 311 311 310 308 307 306 305 305 304 304 303 303
309 309 309 309 310 310 311 312 312 312 313 313 315 315 317 317 318 319 319 319 319 320 319 319 318 317 316 314 312 310 310 309 308 306 305 305 304 304 304 303 303 303
309 309 309 309 309 310 310 311 311 312 313 313 314 315 315 316 316 317 318 318 318 319 319 318 317 316 315 313 311 309 308 307 305 304 303 303 303 303 303 303 302 302
310 310 310 310 310 310 310 310 311 312 313 313 313 313 314 315 315 316 317 317 318 319 318 316 314 313 312 311 310 308 306 305 303 303 303 303 303 303 303 302 302 301
309 310 310 310 311 310 310 311 311 312 313 313 313 313 313 314 314 315 316 316 316 317 315 313 311 309 309 309 308 306 303 302 303 303 303 302 303 302 302 301 301 301
308 309 309 310 310 310 311 311 311 312 312 313 313 313 313 313 313 313 314 315 315 315 313 310 307 306 306 305 303 301 301 301 302 303 302 302 302 301 301 300 300 300
308 308 309 309 310 310 310 311 311 312 312 313 314 313 313 313 312 312 314 314 313 311 309 308 305 302 300 300 298 298 299 300 300 300 300 299 299 299 299 299 299 299
308 308 309 310 310 310 311 311 311 312 312 312 313 312 312 312 312 313 312 310 308 307 306 305 302 298 296 296 296 297 298 298 297 297 297 297 298 297 297 297 297 297
Wind_Speed
14 14 13 13 12 12 12 11 10 10 9 8 7 8 8 8 9 8 6 6 5 4 4 4 3 2 2 2 1 2 3 4 4 4 4 5 5 5 5 5 5 4
15 14 13 13 13 12 12 12 11 11 10 9 8 8 9 9 10 9 8 7 7 6 6 5 4 3 2 2 2 2 3 3 3 3 3 3 3 4 4 4 4 4
15 14 14 13 13 12 12 12 12 11 11 11 10 9 9 11 11 10 10 9 8 8 7 6 6 5 4 3 3 3 3 3 3 3 3 2 2 2 2 2 3 3
15 15 14 13 12 12 12 12 12 12 11 12 12 11 11 12 12 12 11 11 10 9 9 8 7 6 5 5 4 4 4 4 4 4 3 3 2 2 1 1 1 2
14 14 14 14 13 13 12 12 13 12 12 12 12 13 13 14 14 14 13 13 12 11 10 10 9 8 7 7 6 5 5 5 5 4 4 4 3 2 2 1 1 0
12 13 14 14 13 13 13 13 13 13 13 12 13 13 14 15 16 15 15 15 14 13 12 12 11 10 10 9 8 7 6 6 6 5 5 4 4 3 2 2 2 1
11 12 13 13 13 13 14 14 13 13 13 13 13 13 14 15 16 16 16 16 16 15 15 14 14 13 12 11 10 9 8 7 7 7 6 6 6 5 4 3 3 2
10 11 12 12 13 14 14 14 14 13 12 13 14 14 15 16 16 17 17 17 17 17 16 16 16 15 14 13 12 11 10 9 8 8 8 7 7 6 6 5 4 3
9 10 13 14 14 14 15 15 16 15 13 13 14 14 15 16 17 17 18 18 18 18 18 18 17 16 16 14 13 13 12 11 11 10 10 9 8 8 7 7 5 5
8 10 15 16 14 14 14 15 17 17 16 15 15 15 16 16 17 18 18 18 19 19 18 18 17 17 16 16 15 14 14 13 13 12 12 11 10 9 8 7 6 6
9 11 13 14 14 14 14 14 15 16 17 17 18 19 19 18 18 18 19 20 20 19 19 18 18 17 17 17 16 15 15 15 14 14 13 13 12 11 9 8 7 6
9 12 12 13 13 14 14 16 19 20 19 19 19 19 19 19 19 19 19 21 21 20 20 19 18 18 18 18 17 17 17 17 16 15 14 13 12 11 10 9 8 7
5 8 9 9 10 12 14 18 20 20 20 19 19 20 20 19 19 18 19 20 21 21 21 20 20 20 20 19 18 18 18 17 16 15 14 13 12 11 10 10 9 7
2 3 4 4 6 10 14 16 16 16 18 19 18 18 19 19 18 18 19 20 21 22 23 22 22 21 20 20 19 19 18 17 15 15 13 12 12 11 10 9 9 8
4 5 5 4 5 7 9 11 12 14 17 18 18 18 18 18 18 18 19 20 21 21 21 21 21 20 20 22 21 20 18 16 15 15 14 12 12 11 10 9 8 8
6 6 7 7 7 8 8 9 9 10 12 13 15 17 18 18 18 18 19 20 21 20 20 20 21 21 23 24 24 21 17 15 15 14 13 13 11 10 10 9 8 8
7 7 7 8 8 9 10 10 10 10 9 10 11 13 15 16 16 17 18 20 22 22 22 23 24 24 24 25 26 22 16 14 14 13 12 12 10 10 9 8 8 8
7 7 8 9 9 9 10 10 11 11 11 11 11 12 14 14 15 16 17 19 20 20 20 22 24 25 25 25 27 25 18 14 13 12 12 11 10 9 8 8 7 7
7 8 9 9 9 9 10 10 11 12 12 13 13 14 14 14 16 17 17 18 18 17 18 20 22 25 26 25 25 26 22 16 12 12 12 11 10 10 9 8 7 7
8 8 9 9 9 10 10 11 11 12 13 13 14 14 15 15 17 17 17 18 18 18 19 21 23 25 26 26 26 26 25 19 12 11 11 10 9 9 8 8 8 8
9 9 9 10 10 10 11 12 12 13 13 13 14 14 15 16 16 17 18 18 18 19 19 20 22 24 25 27 27 27 26 20 11 10 10 8 8 9 8 8 9 9
9 10 10 10 11 11 12 12 13 13 13 13 14 15 15 16 15 16 16 16 17 19 17 16 19 22 24 26 27 28 26 18 10 9 8 7 8 8 8 9 10 10
9 10 11 11 11 12 13 13 13 13 13 13 14 15 15 16 16 15 15 16 17 16 14 16 20 21 23 25 27 26 23 15 9 8 8 8 8 8 8 9 10 11
11 11 12 12 12 12 13 13 13 13 13 13 13 14 15 15 15 15 15 14 14 12 14 18 21 22 23 25 24 23 19 12 8 8 7 7 7 7 8 9 11 12
13 13 13 13 13 13 13 13 13 13 13 13 13 14 15 15 15 16 13 9 8 11 14 17 21 23 22 22 21 19 16 10 5 5 5 5 6 7 8 9 10 12
15 14 14 13 14 14 13 13 13 13 13 13 14 14 14 14 12 10 6 7 9 12 14 17 23 24 21 19 18 16 14 9 4 2 3 4 5 6 8 9 11 12
Wind_Direction
189 190 189 189 191 190 187 191 190 187 191 195 190 186 186 185 182 183 184 180 176 168 161 156 144 133 120 105 93 87 85 79 72 68 65 62 59 55 49 41 35 29
194 196 196 196 197 197 193 193 194 190 192 197 196 191 189 186 183 187 189 187 187 183 177 175 169 166 165 146 141 129 115 111 103 90 83 79 72 67 54 44 37 22
198 201 203 204 203 203 198 194 197 196 194 195 196 196 191 187 187 191 193 192 194 192 187 188 183 182 184 175 175 171 153 149 145 138 130 115 101 86 70 53 42 22
201 203 206 210 211 209 205 201 201 201 200 198 197 198 194 189 190 193 195 196 198 198 194 194 192 192 192 188 193 189 175 175 167 162 166 156 146 131 105 72 52 23
204 207 209 213 216 216 212 210 210 210 209 206 201 200 197 193 193 195 196 198 201 202 200 198 197 197 196 193 200 198 192 195 186 184 191 177 169 168 160 163 133 39
214 214 215 216 219 223 222 220 221 220 219 216 209 206 203 197 196 198 198 199 202 204 202 202 201 200 198 198 202 201 203 205 196 199 208 196 188 186 182 195 195 201
229 228 227 225 225 229 231 229 228 228 227 226 219 215 213 207 203 204 203 202 203 205 205 204 204 203 200 199 201 201 204 206 196 201 215 209 200 201 203 204 208 228
229 238 240 238 235 235 237 236 236 235 232 231 227 223 221 217 214 212 209 207 207 208 208 208 207 205 201 200 202 202 201 201 198 203 213 210 205 211 211 203 208 239
214 229 237 239 238 237 238 240 241 241 236 233 231 229 226 223 222 222 218 214 213 212 211 211 209 207 203 201 203 203 201 201 201 205 210 207 206 213 214 205 205 221
216 225 231 234 236 232 233 238 241 242 240 237 233 230 229 225 225 229 226 221 220 219 216 214 212 208 204 204 205 205 205 204 204 205 207 205 206 211 211 206 207 217
229 230 226 226 231 228 224 227 233 233 232 234 234 230 228 226 224 227 229 228 226 224 223 220 218 215 209 205 206 207 206 207 207 207 206 205 205 206 206 206 212 221
245 244 235 228 231 232 226 223 228 231 228 230 235 234 232 230 227 226 230 230 227 226 229 227 224 224 218 211 208 208 207 207 208 207 205 205 205 203 203 205 209 217
258 256 250 244 244 246 242 233 232 235 235 232 233 235 234 233 232 229 230 230 227 227 229 226 225 226 223 217 212 209 208 207 206 206 205 204 203 201 202 204 206 213
295 280 276 277 267 256 252 247 242 244 247 244 241 239 236 234 233 231 228 228 229 231 230 227 224 222 218 219 218 212 207 206 204 201 201 202 201 201 202 203 206 214
311 306 301 292 280 267 260 258 253 247 246 247 246 245 245 242 237 232 230 230 232 236 234 227 219 216 219 225 225 214 203 200 199 197 198 199 198 201 204 205 210 218
297 294 291 282 280 279 276 274 267 254 245 241 239 239 242 243 239 236 235 235 235 237 236 227 219 222 228 229 222 210 198 194 194 195 197 197 196 200 202 205 214 223
287 283 280 278 277 275 274 274 272 268 258 247 241 237 236 237 236 237 239 239 239 240 237 227 219 222 231 229 215 202 193 191 191 190 192 194 194 197 202 210 220 228
286 284 281 279 277 273 272 273 271 269 261 250 244 241 239 238 234 234 237 241 243 238 229 224 220 223 230 226 212 202 196 190 187 185 186 190 193 198 206 215 224 233
284 281 279 277 276 273 273 272 269 268 264 257 251 245 242 240 236 234 234 238 240 231 221 226 229 228 226 218 208 203 197 186 182 185 187 190 195 200 208 218 229 241
284 281 277 275 275 273 272 269 266 265 262 259 257 252 247 242 239 237 236 237 238 232 226 228 228 223 219 213 206 202 196 189 185 184 183 188 197 201 212 224 234 247
283 281 280 280 278 273 270 266 264 263 261 259 257 255 251 248 243 240 239 239 240 236 232 227 220 216 213 209 207 205 199 192 179 173 180 194 206 212 223 232 240 250
279 278 277 277 275 272 269 265 263 261 260 259 258 256 255 252 247 243 240 238 239 238 230 216 208 207 205 204 205 203 197 188 172 172 191 211 218 224 234 240 247 252
278 277 275 273 271 269 266 264 264 262 259 259 259 258 256 253 250 247 242 239 241 236 218 200 193 193 195 198 199 196 189 181 178 188 206 222 224 232 244 249 253 252
282 279 278 275 272 271 269 267 265 263 261 259 258 259 259 257 254 249 245 245 243 225 201 190 182 181 189 192 189 184 177 172 189 204 215 228 231 242 253 257 261 259
285 282 279 277 274 272 271 270 268 266 264 261 260 262 260 257 257 253 244 235 212 189 186 186 176 173 179 179 173 171 167 162 180 205 218 241 254 263 268 268 271 274
283 279 276 274 274 272 269 268 267 265 264 263 263 264 261 261 264 252 207 158 156 165 173 179 173 167 167 167 164 167 170 169 168 210 247 263 271 276 280 281 280 281